Location: Newark
(34.9500°N, 139.9667°E)
Time: 15:52:21
(UTC+00:00)

Transit 2A - Pass Details

Date: 08 December 2019
Orbit: 601 x 957 km, 66.7° (Epoch: 18 January)

Event Time Altitude Azimuth Distance (km) Brightness Sun altitude
Rises 21:14:20 0° 194° (SSW) 3,198 9.4 -4.8°
Reaches altitude 10° 21:16:51 10° 190° (S) 2,219 8.6 -4.3°
Maximum altitude 21:21:43 54° 114° (ESE) 824 6.8 -3.4°
Drops below altitude 10° 21:26:12 10° 37° (NE) 2,041 8.4 -2.6°
Sets 21:28:26 0° 33° (NNE) 2,919 9.1 -2.2°
